Lapse_Rate
6.9 6.8 6.9 7.2 7.1 7.2 7.1 6.8 6.5 6.3 6.1 6.2 6.7 6.7 7.2 6.2 7.2 7.3 7.1 6.6 5.8 6.2 6.8 6.7 6.6 6.3 6.2 6.1 6.3 6.2 6.0 5.6 5.8 6.0 5.8 5.5 5.1 5.0 5.0 5.3 5.3 5.3 5.3
6.9 6.9 6.8 7.2 7.5 7.3 6.9 6.7 6.6 6.4 6.3 6.5 6.8 6.6 7.3 7.1 7.3 7.5 7.0 6.4 5.9 5.7 5.8 5.9 6.1 6.2 6.2 6.1 6.1 6.1 6.0 5.8 5.5 5.7 5.3 5.0 4.8 4.4 4.3 4.7 5.0 5.1 5.1
7.0 6.9 6.7 7.0 7.2 7.2 6.9 6.8 6.7 6.9 6.8 6.9 7.2 6.8 6.6 6.7 6.1 6.6 6.8 6.5 6.1 5.6 5.1 5.4 5.8 5.7 5.7 5.9 5.7 5.5 5.5 5.4 5.4 5.4 5.1 4.9 4.8 4.6 4.7 4.8 4.8 4.9 4.8
7.0 6.8 6.8 6.9 7.1 7.0 7.0 6.9 6.6 7.0 7.1 7.5 7.3 6.9 6.7 6.6 6.8 6.1 6.4 6.0 5.6 5.6 5.0 5.0 4.9 5.2 5.2 5.5 5.5 5.4 5.4 5.3 5.2 5.2 5.4 5.4 5.3 5.1 5.0 4.9 4.7 4.6 4.5
7.1 7.1 7.1 7.1 7.0 7.0 7.0 6.9 6.9 7.2 7.4 7.3 7.4 7.1 6.7 6.2 6.9 6.3 6.6 6.1 5.0 5.1 5.3 4.9 4.9 4.8 5.1 5.1 5.1 5.4 5.5 5.4 5.3 5.4 5.5 5.2 5.0 4.9 4.8 4.8 4.7 4.6 4.7
7.5 7.6 7.6 7.4 7.3 7.3 7.3 7.0 7.0 7.3 7.4 7.2 7.4 7.2 6.8 6.6 6.7 6.9 6.7 6.0 5.0 5.0 4.9 4.9 4.9 4.8 4.9 5.0 5.2 5.3 5.1 5.0 5.3 5.3 5.1 5.1 5.0 4.9 4.9 4.8 4.6 4.5 4.5
7.7 7.7 7.8 7.8 7.8 7.7 7.5 7.2 7.3 7.6 7.1 7.5 7.3 7.0 6.8 6.6 7.2 7.0 6.7 6.4 5.3 5.1 5.0 4.9 4.9 4.6 4.7 4.9 4.9 4.9 4.9 5.0 5.2 5.2 5.2 5.0 4.9 4.8 4.5 4.4 4.3 4.1 4.2
7.7 7.7 7.8 7.8 7.9 7.7 7.5 7.3 7.5 7.4 7.4 7.3 7.3 7.0 6.6 5.7 6.6 7.0 6.9 6.7 6.1 5.2 4.9 4.9 4.8 4.7 4.8 5.0 4.9 5.1 5.1 5.0 5.1 5.3 5.2 4.9 4.6 4.6 4.4 4.3 4.3 4.3 4.1
7.9 8.0 8.0 7.8 7.7 7.6 7.5 7.5 7.6 7.4 7.5 7.4 7.2 6.8 6.8 6.2 7.0 6.9 7.1 6.9 6.5 6.1 5.4 5.0 4.9 4.9 4.9 4.9 4.9 5.1 5.1 5.1 5.4 5.3 5.1 4.9 4.8 4.6 4.4 4.4 4.4 4.3 4.3
8.1 8.1 8.0 7.8 7.8 7.8 7.8 7.8 7.8 7.7 7.4 7.4 7.3 7.0 6.3 6.3 7.1 7.1 7.2 6.8 6.4 6.2 5.8 5.2 5.0 5.1 5.1 5.1 5.1 5.3 5.4 5.4 5.2 5.1 5.1 4.9 4.6 4.4 4.4 4.4 4.2 4.3 4.5
7.8 7.9 8.0 8.0 8.0 7.9 7.9 7.9 7.8 7.7 7.4 7.4 7.3 6.9 6.6 6.6 7.0 7.2 7.1 6.6 6.5 6.3 5.8 5.3 5.1 5.2 5.2 5.2 5.3 5.5 5.3 5.3 5.3 5.2 5.0 4.6 4.6 4.5 4.4 4.2 4.3 4.4 4.5
7.6 7.7 7.8 7.8 7.8 7.6 7.5 7.9 7.8 7.7 7.5 7.3 7.0 6.9 6.4 7.3 7.3 7.1 6.9 6.8 6.5 6.3 5.6 5.4 5.2 5.4 5.4 5.2 5.4 5.3 5.2 5.3 5.3 5.2 4.8 4.7 4.8 4.5 4.3 4.3 4.6 4.7 4.6
7.6 7.3 7.6 7.5 7.6 7.6 7.7 7.7 7.6 7.4 7.3 7.2 7.0 7.3 6.9 7.2 7.2 7.0 6.9 6.7 6.5 6.2 5.8 5.7 5.7 5.6 5.2 5.1 5.3 5.4 5.4 5.1 4.8 4.6 4.5 4.6 4.6 4.8 5.0 4.9 4.8 4.7 4.9
7.5 7.4 7.5 7.6 7.4 7.3 7.2 7.2 7.2 7.1 7.1 7.2 7.3 7.1 7.3 7.2 7.0 7.0 6.8 6.5 6.5 6.2 6.1 5.9 5.6 5.3 5.0 5.2 5.2 5.2 5.2 4.8 4.7 4.5 4.3 4.5 4.7 4.9 5.0 5.1 5.0 5.2 4.7
7.1 7.2 7.2 7.4 7.5 7.4 7.3 7.3 7.2 7.1 7.2 7.2 7.1 7.4 7.4 7.0 6.8 6.6 6.3 6.2 6.2 6.2 6.1 5.6 5.4 5.1 5.1 5.4 5.2 5.2 5.1 4.5 4.4 4.6 4.6 4.8 5.0 5.1 5.2 5.1 4.9 4.8 4.8
7.0 7.2 7.3 7.2 7.4 7.5 7.5 7.4 7.4 7.4 7.4 7.5 7.5 7.5 7.2 6.9 6.8 6.3 6.3 6.3 6.5 6.2 5.8 5.4 5.2 5.1 5.5 5.7 5.5 5.1 4.7 4.5 4.8 4.8 4.7 4.9 5.1 5.3 5.1 4.9 4.7 4.5 4.5
7.0 6.9 6.9 6.9 6.9 7.1 7.1 7.1 7.1 7.2 7.3 7.3 7.5 7.5 7.1 6.6 6.3 6.3 6.1 6.4 6.4 6.1 5.6 5.4 5.3 5.6 5.8 5.8 5.4 4.8 4.6 4.8 5.0 4.7 5.0 5.1 5.3 5.2 5.1 4.9 4.7 4.6 4.7
6.7 6.9 7.1 7.0 6.8 6.8 6.9 6.8 6.8 6.9 6.9 6.9 6.9 7.0 6.6 6.4 6.2 6.2 6.3 6.4 6.3 5.8 5.6 5.6 5.5 5.8 5.8 5.6 5.1 4.8 4.8 5.0 4.8 4.9 5.0 5.2 5.2 5.1 5.1 5.1 5.1 4.9 4.8
6.7 6.7 6.9 6.9 6.7 6.9 6.9 6.9 6.8 6.7 6.6 6.6 6.4 6.5 6.3 6.2 6.1 6.1 6.1 5.9 5.7 5.6 5.9 5.8 5.7 5.7 5.5 5.3 5.1 5.0 5.0 4.7 4.9 5.1 5.3 5.2 5.1 5.1 5.1 5.2 5.3 5.1 4.8
6.4 6.6 6.7 6.8 6.9 7.1 6.8 6.8 6.8 6.6 6.6 6.6 6.5 6.5 6.3 6.3 6.1 6.0 5.7 5.7 5.5 5.8 6.0 5.6 5.6 5.3 5.2 5.2 5.5 4.8 4.7 5.0 5.3 5.4 5.3 5.2 5.1 5.2 5.3 5.3 5.3 5.2 5.3
6.8 6.6 6.8 6.9 6.9 6.7 6.9 6.9 6.8 6.8 6.8 6.7 6.6 6.4 6.5 6.4 6.2 5.9 5.6 5.7 6.0 5.9 6.0 5.5 5.1 4.9 5.1 5.5 4.8 4.7 5.2 5.4 5.4 5.5 5.4 5.4 5.2 5.3 5.5 5.6 5.6 5.7 5.7
6.7 6.8 7.1 7.1 7.0 6.8 6.8 7.0 7.1 7.1 7.1 6.9 6.7 6.4 6.4 6.5 6.1 5.8 5.5 5.7 5.7 5.9 5.6 5.1 5.0 5.2 5.5 4.9 5.0 5.3 5.3 5.4 5.6 5.6 5.6 5.5 5.6 5.9 6.0 6.0 6.1 6.1 5.9
7.1 7.3 7.4 7.4 7.3 7.2 6.9 6.8 7.1 7.3 7.3 7.1 7.0 6.6 6.4 6.3 6.0 5.6 5.7 5.7 5.9 5.6 5.1 5.1 5.2 5.4 4.6 4.7 5.2 5.5 5.6 5.6 5.6 5.6 5.6 5.8 5.9 6.2 6.4 6.5 6.4 6.2 6.0
7.4 7.5 7.5 7.4 7.4 7.4 7.1 6.7 6.8 7.1 7.2 7.6 7.4 6.8 6.4 6.3 6.1 5.5 5.7 5.8 5.8 4.9 5.1 5.3 5.4 4.8 4.9 5.5 5.6 5.4 5.6 5.7 5.7 6.0 6.2 6.4 6.7 6.9 7.0 6.8 6.6 6.3 6.0
7.3 7.2 7.3 7.3 7.3 7.3 7.1 6.8 6.7 6.9 7.2 7.4 6.4 6.3 6.1 5.7 5.5 5.5 5.6 5.6 5.1 4.7 4.9 5.1 4.8 4.7 5.4 5.5 5.4 5.8 5.8 5.9 6.2 6.4 6.8 7.1 7.2 7.3 7.2 6.8 6.4 6.1 5.7
7.2 7.2 7.3 7.3 7.2 7.0 6.9 6.6 6.6 6.8 6.8 6.2 5.6 5.8 6.0 6.0 5.9 6.0 5.7 5.3 5.0 5.1 4.9 4.6 4.8 5.3 5.3 5.5 5.7 5.7 6.1 6.3 6.6 6.9 7.1 7.3 7.4 7.3 7.1 6.9 6.5 5.9 4.7
Wind_Speed
12 12 10 9 10 7 7 6 6 6 7 6 5 5 8 8 7 7 6 7 6 6 4 6 5 3 3 3 3 2 2 2 3 0 1 3 3 4 5 7 9 10 6
13 11 12 11 8 8 8 7 7 7 7 9 10 10 8 8 8 7 7 6 6 5 6 6 5 3 4 4 2 4 3 2 3 3 3 4 4 3 3 3 8 11 10
12 12 11 11 10 11 9 8 10 11 11 13 13 11 6 9 10 10 8 7 6 6 7 6 6 6 4 3 3 4 3 3 3 3 2 1 2 2 2 3 3 6 8
13 13 13 13 13 12 8 10 12 13 15 15 12 7 5 9 10 10 8 7 6 6 5 6 5 6 6 6 4 4 3 3 3 3 3 1 1 1 2 1 3 2 3
13 13 16 14 11 9 10 12 13 14 14 13 7 7 6 6 7 8 8 8 8 6 6 6 6 7 9 7 4 3 4 3 2 2 2 1 1 2 1 1 1 2 3
13 16 14 10 10 12 12 13 13 14 12 10 8 7 6 2 4 12 12 8 8 8 6 5 6 10 8 8 6 9 7 5 3 2 2 2 2 2 1 1 1 2 3
14 14 11 10 12 12 12 12 13 15 13 12 9 8 8 9 8 14 18 9 8 6 7 6 5 5 7 6 7 6 4 6 6 5 4 4 2 2 2 1 2 2 3
9 8 6 10 11 10 12 13 12 12 15 13 10 5 2 3 6 15 17 9 7 6 7 7 6 6 6 6 5 2 2 2 2 4 5 4 5 6 4 3 2 3 4
11 10 9 10 10 11 12 13 10 10 6 8 8 5 6 6 12 16 14 8 6 7 6 6 7 7 8 9 6 4 3 3 1 3 7 9 11 12 12 1 4 1 3
5 7 8 10 11 12 11 13 9 8 8 8 6 8 8 7 11 18 12 7 7 5 4 5 11 8 10 11 7 6 3 4 2 2 3 5 7 9 3 7 3 2 3
5 5 5 6 7 7 6 3 6 8 8 7 6 1 3 3 9 14 14 7 6 5 5 4 4 9 11 11 9 6 6 3 1 1 3 4 4 4 2 4 8 4 3
6 6 5 6 3 5 8 7 7 7 6 7 5 4 4 7 9 11 13 9 9 7 6 4 5 10 10 10 8 7 6 1 1 3 3 3 4 3 4 4 3 5 8
5 5 5 6 7 6 8 8 6 5 6 5 5 5 4 2 4 11 13 11 12 6 5 7 9 10 9 6 6 6 4 2 3 3 5 4 3 4 3 3 3 1 3
5 3 6 6 6 6 4 5 5 4 4 4 4 4 4 3 4 4 4 5 9 6 6 4 4 4 3 3 3 2 3 4 5 5 4 3 3 2 3 2 2 1 1
3 3 4 4 5 5 3 2 3 3 6 7 6 6 7 6 7 7 8 6 5 6 7 3 2 2 2 1 2 4 4 4 4 3 3 4 2 2 2 2 1 2 3
4 3 3 4 4 3 3 2 7 4 7 7 10 8 3 5 11 10 10 11 11 13 4 3 2 2 3 2 4 5 3 5 3 3 2 3 3 4 3 1 2 3 3
6 5 4 3 3 4 3 3 3 5 9 4 5 9 13 10 14 13 11 9 10 6 3 3 3 4 4 4 4 4 3 2 1 2 2 4 3 3 2 2 2 3 3
6 7 4 3 4 4 4 4 3 4 4 3 5 4 3 9 13 14 14 10 2 1 2 3 4 4 4 4 3 2 2 1 1 1 1 1 2 2 1 3 3 3 2
5 4 4 4 5 5 4 4 3 3 3 3 2 4 8 12 10 9 11 4 4 4 3 3 4 5 4 2 3 3 2 3 3 2 2 2 1 1 3 4 3 4 2
5 9 6 4 3 4 4 4 3 3 4 3 3 4 4 4 3 4 5 3 4 3 4 4 5 4 4 4 3 3 2 2 2 2 1 0 2 2 3 3 3 3 2
4 3 2 3 3 4 4 5 4 5 5 4 4 4 10 6 6 7 7 4 4 4 4 4 3 4 4 4 3 3 3 2 2 2 1 1 1 2 3 3 2 3 2
4 4 4 4 3 4 4 4 4 5 5 5 4 4 12 3 5 5 4 4 4 4 2 4 4 4 4 4 4 3 3 2 2 2 2 2 1 2 2 2 2 1 2
4 4 4 3 3 3 4 4 6 6 6 6 6 6 6 5 6 6 5 5 4 4 4 4 5 4 6 7 4 4 4 4 3 4 3 2 1 1 2 2 2 2 3
4 4 4 3 2 3 3 3 3 6 6 7 7 7 7 6 6 5 5 5 5 4 7 7 6 6 8 7 6 5 4 4 4 4 2 1 1 2 2 2 3 4 5
4 4 4 4 4 3 4 3 3 5 5 5 6 7 6 6 7 7 6 5 6 7 7 9 10 12 11 9 7 5 4 3 3 2 2 2 3 4 3 3 4 4 5
3 3 4 3 3 4 3 3 3 4 6 5 6 7 7 7 7 6 6 7 7 7 7 9 12 14 13 10 8 6 5 3 2 3 4 4 3 3 3 5 7 5 8
Wind_Direction
198 202 205 204 207 191 192 193 170 151 142 130 156 148 185 164 170 158 154 143 146 144 138 131 109 97 78 48 32 41 77 110 121 99 75 30 34 26 15 32 27 19 9
200 197 206 212 204 190 193 186 148 142 135 141 170 198 178 168 167 136 151 167 162 161 146 123 120 114 95 78 41 48 59 65 114 103 11 7 42 16 348 349 357 6 8
194 197 203 207 199 205 194 162 140 143 156 175 192 201 176 165 165 165 165 163 164 163 157 146 144 134 112 89 75 59 34 27 50 103 108 14 360 11 348 353 347 348 7
196 198 206 208 205 204 178 156 152 166 174 187 199 142 154 185 165 162 152 154 166 158 142 140 141 151 140 137 118 110 84 79 66 86 71 29 30 346 59 32 347 340 313
197 200 211 209 202 182 166 164 164 176 186 186 171 161 172 173 162 147 156 162 161 156 168 153 152 161 158 165 142 130 125 104 100 110 111 52 350 360 79 285 289 302 308
197 209 211 194 176 180 169 173 174 182 187 179 189 185 140 157 186 165 167 168 165 166 172 155 154 159 153 160 146 159 158 149 140 148 159 170 246 218 222 193 278 8 331
200 213 201 178 183 184 172 173 181 183 188 193 192 177 186 181 175 183 176 171 164 161 157 160 159 154 150 146 156 149 135 148 158 163 158 198 216 211 197 259 233 220 243
210 213 176 172 178 172 174 186 183 185 191 191 192 184 357 267 193 180 176 162 154 155 169 164 157 159 171 161 157 171 224 233 201 191 199 220 215 233 212 210 234 255 281
201 193 170 164 167 172 186 188 183 179 181 178 161 159 177 213 201 169 167 157 154 162 167 161 170 174 184 165 155 189 243 296 336 39 252 255 261 266 260 196 271 212 304
170 169 163 166 173 181 184 183 176 175 154 155 135 151 218 218 184 160 157 157 157 145 159 180 189 180 168 166 168 177 198 250 238 323 340 337 326 307 334 201 161 214 225
48 72 93 115 147 151 149 122 130 135 146 140 136 133 302 206 181 159 148 157 160 151 163 182 189 175 173 175 169 182 202 169 243 207 284 300 300 285 262 209 195 164 195
65 74 80 92 112 123 108 110 120 130 135 128 150 178 247 159 169 169 151 143 148 154 181 186 185 181 187 187 173 203 200 174 317 297 291 276 276 275 241 234 196 203 229
67 78 67 88 107 120 126 125 129 144 153 168 182 194 163 191 155 164 163 157 159 151 164 181 180 190 196 191 197 199 185 203 249 265 260 251 226 240 205 158 120 153 257
82 94 101 104 108 112 127 135 148 161 167 177 164 198 152 172 169 161 152 161 153 130 138 148 173 156 159 151 127 181 223 225 222 239 247 247 258 223 206 174 178 186 263
120 119 122 124 132 117 76 123 166 174 179 176 190 178 172 192 201 171 161 159 156 146 113 94 106 117 182 261 285 255 260 257 238 217 226 238 239 201 221 181 194 186 210
173 176 156 131 117 108 134 109 42 30 197 193 154 163 161 144 153 155 149 143 136 141 93 125 165 167 198 212 257 274 265 256 231 208 215 215 212 204 209 207 195 219 230
183 175 151 145 149 149 162 178 183 29 56 63 187 160 162 165 163 161 161 134 148 120 117 160 185 185 211 224 238 235 244 216 219 219 229 221 209 207 192 239 242 237 245
181 175 163 183 174 180 191 187 175 174 178 172 68 137 166 164 166 158 134 105 111 6 142 174 192 203 216 227 242 208 236 245 268 268 252 211 203 200 231 260 262 234 229
192 185 191 187 182 190 177 195 194 184 189 163 128 81 85 91 104 123 162 145 169 184 171 189 203 210 216 205 191 207 207 218 219 200 203 182 207 235 265 255 260 224 210
201 224 190 172 132 176 180 185 179 186 192 203 178 152 129 116 146 169 195 179 169 162 179 206 220 223 200 186 187 171 151 147 171 182 173 229 266 246 271 275 250 223 235
217 231 141 130 173 195 190 192 191 178 193 192 188 165 175 158 160 176 190 182 171 182 210 210 202 174 145 146 153 141 153 176 187 171 182 260 279 305 307 268 241 245 268
189 159 150 171 181 209 212 184 185 194 185 178 173 158 158 151 159 169 151 179 186 194 199 172 153 143 151 147 141 145 163 185 171 169 207 208 236 311 321 343 12 7 309
127 137 149 171 202 216 227 203 189 201 184 175 158 150 174 167 170 161 181 182 174 171 154 151 134 120 116 112 126 156 157 187 203 194 198 203 242 318 350 328 318 317 303
140 152 167 170 163 218 216 237 206 193 188 173 162 161 174 166 145 150 169 173 163 136 148 137 133 126 119 125 122 117 155 175 199 212 188 176 264 295 297 282 276 278 280
165 173 172 185 197 218 254 235 204 195 191 192 165 159 152 146 145 169 170 155 142 145 139 129 118 131 143 138 142 160 169 158 176 163 165 192 229 254 259 263 274 285 285
173 186 194 205 220 197 222 234 203 190 194 193 169 155 149 145 157 158 154 146 139 135 127 125 133 142 138 143 153 155 150 149 157 178 202 216 236 276 277 283 291 276 279